Location: Boiro
(42.6475°N, 8.8834°W)
Time: 02:32:25
(UTC+01:00)

Explorer 7 - Pass Details

Date: 30 November 2021
Orbit: 483 x 674 km, 50.3° (Epoch: 23 January)

Event Time Altitude Azimuth Distance (km) Brightness Sun altitude
Rises 15:59:33 0° 284° (WNW) 2,551 10.5 16.3°
Maximum altitude 16:04:20 12° 229° (SW) 1,550 11.4 15.8°
Drops below altitude 10° 16:05:43 10° 207° (SSW) 1,657 11.5 15.6°
Sets 16:09:07 0° 174° (S) 2,547 10.9 15.3°
